Mountain View, CA

4:13 AM PST on December 11, 2016 (GMT -0800)
Moffett Federal Air Field

Weather History for KNUQ - July, 2012

Change the Weather History Date:

Tuesday, July 24, 2012

  Actual Average Record
Temperature  
Mean Temperature 67 °F 68 °F  
Max Temperature 77 °F 77 °F 93 °F (2006)
Min Temperature 57 °F 59 °F 52 °F (1948)
Degree Days  
Heating Degree Days 0    
Month to date heating degree days 10  
Since 1 June heating degree days 51  
Since 1 July heating degree days 10  
Cooling Degree Days 2    
Month to date cooling degree days 49  
Year to date cooling degree days 147  
Since 1 June cooling degree days 104  
Growing Degree Days 16 (Base 50)    
Moisture  
Dew Point 54 °F    
Average Humidity 67    
Maximum Humidity 84    
Minimum Humidity 50    
Precipitation  
Precipitation 0.00 in 0.00 in 0.00 in (2016)
Month to date precipitation 0.00 0.02  
Year to date precipitation 5.51 9.65  
Since 1 July precipitation 0.00  
Sea Level Pressure  
Sea Level Pressure 29.96 in    
Wind  
Wind Speed 8 mph (NNE)    
Max Wind Speed 17 mph    
Max Gust Speed 22 mph    
Visibility 10 miles    
Events      
T = Trace of Precipitation, MM = Missing Value Source: NWS Daily Summary

Daily Weather History Graph

Daily Weather History Graph

Search for Another Location

Airport or City:

Trip Planner

Search our weather history database for the weather conditions in past years. The results will help you decide how hot, cold, wet, or windy it might be!

Date:

Astronomy

Jul. 24, 2012 Rise Set
Actual Time 6:06 AM PDT 8:22 PM PDT
Civil Twilight 5:36 AM PDT 8:51 PM PDT
Nautical Twilight 5:00 AM PDT 9:28 PM PDT
Astronomical Twilight 4:21 AM PDT 10:07 PM PDT
Moon 12:00 PM PDT (7/24) 11:23 PM PDT (7/24)
Length of Visible Light 15h 14m
Length of Day
14h 16m
Waxing Crescent, 32% of the Moon is Illuminated
Jul 24
Waxing Crescent
Jul 26
First Quarter
Aug 1
Full
Aug 9
Last Quarter
Aug 17
New

Hourly Weather History & Observations

Time (PDT) Temp. Dew Point Humidity Pressure Visibility Wind Dir Wind Speed Gust Speed Precip Events Conditions
12:56 AM 61.0 °F 54.0 °F 78% 29.95 in 10.0 mi SE 3.5 mph - N/A   Clear
1:56 AM 60.1 °F 52.0 °F 75% 29.96 in 10.0 mi Calm Calm - N/A   Clear
2:56 AM 57.9 °F 52.0 °F 81% 29.95 in 10.0 mi SE 4.6 mph - N/A   Clear
3:56 AM 57.9 °F 52.0 °F 81% 29.95 in 10.0 mi SSE 3.5 mph - N/A   Clear
4:56 AM 57.9 °F 52.0 °F 81% 29.96 in 10.0 mi SE 3.5 mph - N/A   Clear
5:56 AM 57.9 °F 52.0 °F 81% 29.96 in 10.0 mi SE 6.9 mph - N/A   Mostly Cloudy
6:22 AM 59.0 °F 51.8 °F 77% 29.96 in 10.0 mi SE 4.6 mph - N/A   Overcast
6:56 AM 59.0 °F 52.0 °F 78% 29.97 in 10.0 mi SE 5.8 mph - N/A   Overcast
7:56 AM 60.1 °F 53.1 °F 78% 29.99 in 10.0 mi SE 5.8 mph - N/A   Overcast
8:56 AM 62.1 °F 53.1 °F 72% 29.99 in 10.0 mi SE 3.5 mph - N/A   Scattered Clouds
9:56 AM 66.9 °F 53.1 °F 61% 29.98 in 10.0 mi Calm Calm - N/A   Clear
10:56 AM 70.0 °F 54.0 °F 57% 29.98 in 10.0 mi North 6.9 mph - N/A   Clear
11:56 AM 72.0 °F 55.9 °F 57% 29.97 in 10.0 mi North 9.2 mph - N/A   Clear
12:56 PM 73.0 °F 55.9 °F 55% 29.96 in 10.0 mi NNW 10.4 mph - N/A   Clear
1:56 PM 75.9 °F 55.9 °F 50% 29.95 in 10.0 mi NNW 11.5 mph - N/A   Clear
2:56 PM 75.0 °F 57.0 °F 53% 29.94 in 10.0 mi NNW 13.8 mph - N/A   Clear
3:56 PM 73.9 °F 55.9 °F 53% 29.93 in 10.0 mi NNW 12.7 mph - N/A   Clear
4:56 PM 72.0 °F 55.9 °F 57% 29.92 in 10.0 mi NNW 13.8 mph 20.7 mph N/A   Clear
5:56 PM 72.0 °F 57.0 °F 59% 29.92 in 10.0 mi NNW 17.3 mph 20.7 mph N/A   Clear
6:56 PM 70.0 °F 57.0 °F 63% 29.92 in 10.0 mi NNW 13.8 mph 19.6 mph N/A   Clear
7:56 PM 68.0 °F 55.9 °F 65% 29.93 in 10.0 mi NNW 8.1 mph - N/A   Clear
8:56 PM 64.9 °F 57.9 °F 78% 29.94 in 10.0 mi North 12.7 mph - N/A   Clear
9:56 PM 63.0 °F 55.9 °F 78% 29.97 in 10.0 mi North 9.2 mph - N/A   Clear
10:56 PM 62.1 °F 55.0 °F 78% 29.97 in 10.0 mi North 5.8 mph - N/A   Clear
11:56 PM 61.0 °F 55.0 °F 81% 29.97 in 10.0 mi NW 3.5 mph - N/A   Clear